Location: Unspecified
(0.0000°N, 0.0000°E)
Time: 12:47:39
(UTC+00:00)

JUGNU - Pass Details

Date: 26 February 2020
Orbit: 836 x 864 km, 20.0° (Epoch: 01 April)

Event Time Altitude Azimuth Distance (km) Brightness Sun altitude
Rises 18:30:11 0° 281° (W) 3,386 ? -4.3°
Reaches altitude 10° 18:32:49 10° 275° (W) 2,448 ? -4.9°
Maximum altitude 18:38:29 50° 201° (SSW) 1,051 ? -6.3°
Drops below altitude 10° 18:44:09 10° 126° (SE) 2,438 ? -7.7°
Enters shadow 18:46:22 - 121° (ESE) 3,225 ? -8.3°
